This demonstration page uses our WeatherBlox Daily Observations layout. Learn more.

Left ArrowRight Arrow

Hourly Observations for April 2, 2023

Temp ( °F °C ) Dew Point ( °F °C ) Humidity (%) Winds ( mph kmh ) Pressure ( in mb ) Visibility ( mi km ) Precip ( " mm )
12:53 am 00:53 Clear 47 8.3 26 -3.3 44 44 SSE 13 20 29.98 1015 10 16 0.00 0.00
1:53 am 01:53 Clear 46 7.8 27 -2.8 47 47 SSE 12 19 29.96 1015 10 16 0.00 0.00
2:53 am 02:53 Clear 48 8.9 28 -2.2 46 46 SSE 14 22 29.91 1013 10 16 0.00 0.00
3:53 am 03:53 Clear 49 9.4 29 -1.7 46 46 SSE 16 26 29.87 1011 10 16 0.00 0.00
4:53 am 04:53 Clear 49 9.4 29 -1.7 46 46 S 15 24 29.84 1011 10 16 0.00 0.00
5:53 am 05:53 Clear 47 8.3 30 -1.1 51 51 SSE 12 19 29.84 1010 10 16 0.00 0.00
6:53 am 06:53 Clear 49 9.4 31 -0.6 50 50 S 15 24 29.84 1011 10 16 0.00 0.00
7:53 am 07:53 Sunny 49 9.4 32 0 52 52 S 14 22 29.84 1011 10 16 0.00 0.00
8:53 am 08:53 Mostly Sunny 52 11.1 33 0.6 48 48 S 20 31 29.83 1010 10 16 0.00 0.00
9:53 am 09:53 Mostly Sunny 57 13.9 35 1.7 43 43 S 18 30 29.80 1009 10 16 0.00 0.00
10:53 am 10:53 Mostly Sunny 63 17.2 37 2.8 38 38 SSW 22 35 29.78 1009 10 16 0.00 0.00
11:53 am 11:53 Mostly Sunny 71 21.7 38 3.3 30 30 SW 25 41 29.75 1008 10 16 0.00 0.00
12:53 pm 12:53 Mostly Sunny 75 23.9 39 3.9 27 27 SW 25 41 29.72 1006 10 16 0.00 0.00
1:53 pm 13:53 Mostly Sunny 78 25.6 39 3.9 25 25 SW 21 33 29.67 1005 10 16 0.00 0.00
2:53 pm 14:53 Mostly Sunny 80 26.7 40 4.4 24 24 SSW 18 30 29.63 1004 10 16 0.00 0.00
3:53 pm 15:53 Mostly Sunny 82 27.8 38 3.3 21 21 SSW 18 30 29.60 1002 10 16 0.00 0.00
4:53 pm 16:53 Mostly Sunny 83 28.3 39 3.9 21 21 SSW 16 26 29.57 1002 10 16 0.00 0.00
5:53 pm 17:53 Partly Cloudy 80 26.7 44 6.7 28 28 S 17 28 29.56 1001 10 16 0.00 0.00
6:53 pm 18:53 Mostly Sunny 77 25 42 5.6 29 29 SSW 14 22 29.56 1001 10 16 0.00 0.00
7:53 pm 19:53 Mostly Sunny 71 21.7 50 10 47 47 S 12 19 29.56 1001 10 16 0.00 0.00
8:53 pm 20:53 Clear 66 18.9 49 9.4 54 54 SSE 5 7 29.56 1001 10 16 0.00 0.00
9:53 pm 21:53 Clear 65 18.3 52 11.1 63 63 S 10 17 29.58 1002 10 16 0.00 0.00
10:53 pm 22:53 Clear 64 17.8 50 10 60 60 S 13 20 29.58 1002 10 16 0.00 0.00
11:53 pm 23:53 Clear 62 16.7 48 8.9 60 60 S 12 19 29.57 1001 10 16 0.00 0.00

Powered by AerisWeather